Monroe, NC

4:05 AM EST on January 23, 2018 (GMT -0500)
Monroe

Weather History for KEQY - May, 2014

Change the Weather History Date:

Sunday, May 25, 2014

  Actual Average (KCLT) Record (KCLT)
Temperature  
Mean Temperature 69 °F -  
Max Temperature 82 °F 80 °F 95 °F (1953)
Min Temperature 57 °F 61 °F 41 °F (2013)
Cooling Degree Days 4    
Growing Degree Days 19 (Base 50)    
Moisture  
Dew Point 57 °F    
Average Humidity 63    
Maximum Humidity 81    
Minimum Humidity 41    
Precipitation  
Precipitation 0.00 in - - ()
Sea Level Pressure  
Sea Level Pressure 30.16 in    
Wind  
Wind Speed 2 mph (SSW)    
Max Wind Speed 6 mph    
Max Gust Speed -    
Visibility 10 miles    
Events      
Averages and records for this station are not official NWS values.
T = Trace of Precipitation, MM = Missing Value Source: NWS Daily Summary

Daily Weather History Graph

Daily Weather History Graph

Search for Another Location

Airport or City:

Trip Planner

Search our weather history database for the weather conditions in past years. The results will help you decide how hot, cold, wet, or windy it might be!

Date:

Astronomy

May. 25, 2014 Rise Set
Actual Time 6:12 AM EDT 8:26 PM EDT
Civil Twilight 5:43 AM EDT 8:55 PM EDT
Nautical Twilight 5:08 AM EDT 9:30 PM EDT
Astronomical Twilight 4:30 AM EDT 10:09 PM EDT
Moon 4:08 AM EDT (5/25) 5:32 PM EDT (5/25)
Length of Visible Light 15h 11m
Length of Day
14h 14m
Waning Crescent, 10% of the Moon is Illuminated
May 25
Waning Crescent
May 28
New
Jun 5
First Quarter
Jun 13
Full
Jun 19
Last Quarter

Hourly Weather History & Observations

Time (EDT) Temp. Heat Index Dew Point Humidity Pressure Visibility Wind Dir Wind Speed Gust Speed Precip Events Conditions
12:53 AM 61.0 °F - 52.0 °F 72% 30.12 in 10.0 mi Calm Calm - N/A   Clear
2:53 AM 57.9 °F - 51.1 °F 78% 30.12 in 10.0 mi Calm Calm - N/A   Clear
3:53 AM 57.9 °F - 50.0 °F 75% 30.12 in 10.0 mi Calm Calm - N/A   Clear
5:53 AM 59.0 °F - 52.0 °F 78% 30.14 in 10.0 mi Calm Calm - N/A   Mostly Cloudy
6:53 AM 59.0 °F - 52.0 °F 78% 30.16 in 10.0 mi Calm Calm - N/A   Scattered Clouds
8:53 AM 66.9 °F - 55.0 °F 66% 30.20 in 10.0 mi NE 3.5 mph - N/A   Scattered Clouds
9:53 AM 71.1 °F - 55.9 °F 59% 30.21 in 10.0 mi Calm Calm - N/A   Mostly Cloudy
11:53 AM 78.1 °F - 57.9 °F 50% 30.20 in 10.0 mi Variable 3.5 mph - N/A   Partly Cloudy
12:53 PM 79.0 °F - 55.9 °F 45% 30.19 in 10.0 mi North - - N/A   Partly Cloudy
1:53 PM 80.1 °F 80.6 °F 57.9 °F 47% 30.18 in 10.0 mi SSW 5.8 mph - N/A   Mostly Cloudy
2:53 PM 81.0 °F 80.7 °F 55.0 °F 41% 30.17 in 10.0 mi Variable 4.6 mph - N/A   Scattered Clouds
3:53 PM 80.1 °F 80.2 °F 55.9 °F 43% 30.15 in 10.0 mi SSW 5.8 mph - N/A   Mostly Cloudy
4:53 PM 80.1 °F 80.7 °F 59.0 °F 48% 30.14 in 10.0 mi SSW 5.8 mph - N/A   Clear
5:53 PM 77.0 °F - 60.1 °F 56% 30.14 in 10.0 mi SSW 3.5 mph - N/A   Partly Cloudy
6:53 PM 77.0 °F - 61.0 °F 58% 30.14 in 10.0 mi South 3.5 mph - N/A   Clear
7:53 PM 73.0 °F - 62.1 °F 68% 30.15 in 10.0 mi Calm Calm - N/A   Partly Cloudy
8:53 PM 71.1 °F - 63.0 °F 75% 30.16 in 10.0 mi SSW 3.5 mph - N/A   Mostly Cloudy
9:53 PM 69.1 °F - 62.1 °F 78% 30.17 in 10.0 mi Calm Calm - N/A   Partly Cloudy
10:53 PM 70.0 °F - 61.0 °F 73% 30.18 in 10.0 mi SSW 3.5 mph - N/A   Clear
11:53 PM 68.0 °F - 62.1 °F 81% 30.19 in 10.0 mi SSW 5.8 mph - N/A   Clear